{"data":{"norad_id":47533,"intl_designator":"2021-007B","name":"YAOGAN-31 02B","alt_names":[],"object_type":"PAYLOAD","status":"ACTIVE","operator":null,"country":"PRC","launch_date":"2021-01-29","launch_site_code":"JSC","launch_vehicle":null,"mission":null,"orbit_class":"UNKNOWN","rcs_meters":null,"size_class":null,"mass_kg":null,"dimensions":null,"purposes":[],"wikipedia_slug":null,"has_3d_model":false,"image_url":null,"decayed_at":null,"tle_current":{"epoch":"2026-09-20T22:09:22.562784Z","epoch_age_seconds":45710,"freshness":"FRESH","line1":"1 47533U 21007B   26263.92317781  .00000013  00000+0  15666-3 0  9999","line2":"2 47533  63.4013 256.0717 0184768   0.9404 359.1935 13.45454105277115","mean_motion":13.45454105,"eccentricity":0.0184768,"inclination_deg":63.4013,"raan_deg":256.0717,"arg_perigee_deg":0.9404,"mean_anomaly_deg":359.1935,"bstar":0.00015666,"rev_number":27711,"period_min":107.02706206393,"perigee_km":951.06152126098,"apogee_km":1227.0002565606,"semimajor_km":7467.1678889108,"source":"CELESTRAK","updated_at":"2026-09-21T09:00:07.527447Z"}}}